Flag for Canada Weather past 2 weeks in Toronto, Ontario, Canada

Now
14 °F

Mostly cloudy.


Feels Like: 0 °F
Forecast: 12 / 18 °F
Wind: 13 mph from Northeast

Location: Toronto Pearson International Airport

Current Time: Jan 26, 2015 at 10:42:38 PM

Latest Report: Jan 26, 2015 at 9:00 PM


Visibility: 15 mi

Pressure: 30.04 "Hg

Humidity: 57%

Dew point: 1 °F

Location of TorontoLocation

Historic Weather in Toronto — Graph

°F

Toronto temperature yesterday

Maximum temperature yesterday: 28 °F (at 12:00 AM)
Minimum temperature yesterday: 10 °F (at 8:00 AM)
Average temperature yesterday: 16 °F

Past Weeks' High & Low Weather Summary

 TemperatureHumidityPressure
High43 °F (Jan 18, 4:00 AM)93% (Jan 18, 9:00 AM)30.86 "Hg (Jan 18, 9:00 AM)
Low-6 °F (Jan 13, 6:00 AM)38% (Jan 25, 1:00 PM)29.48 "Hg (Jan 24, 4:00 PM)
Average20 °F71%30.08 "Hg
* Reported Jan 11 9:00 PM — Jan 26 9:00 PM, Toronto, Weather by CustomWeather, © 2014

Note: Actual official high and low records may vary slightly from our data, if they occured in-between our weather recording intervals... More about our weather records

Advertising

Toronto weather history for previous 24 hours

 ConditionsComfort  
Time TempWeatherWind HumidityBarometerVisibility
9:00 PM
Jan 26
14 °FMostly cloudy.13 mph57%30.04 "Hg15 mi
8:00 PM14 °FPassing clouds.12 mph52%30.05 "Hg15 mi
7:00 PM16 °FPassing clouds.13 mph41%30.04 "Hg15 mi
6:00 PM16 °FPassing clouds.12 mph45%30.02 "Hg15 mi
5:00 PM18 °FPartly sunny.13 mph41%30.00 "Hg15 mi
4:00 PM18 °FBroken clouds.13 mph45%29.99 "Hg15 mi
3:00 PM16 °FPartly sunny.15 mph48%29.98 "Hg15 mi
2:00 PM18 °FPartly sunny.14 mph41%29.99 "Hg15 mi
1:00 PM16 °FBroken clouds.14 mph53%30.00 "Hg15 mi
12:00 PM14 °FBroken clouds.15 mph57%30.03 "Hg15 mi
11:00 AM12 °FBroken clouds.12 mph57%30.06 "Hg15 mi
10:00 AM10 °FPartly sunny.14 mph61%30.06 "Hg15 mi
9:00 AM9 °FPartly sunny.15 mph61%30.05 "Hg15 mi
8:00 AM7 °FScattered clouds.13 mph72%30.06 "Hg15 mi
7:00 AM9 °FLight snow. Passing clouds.10 mph72%30.04 "Hg8 mi
6:00 AM10 °FLight snow. Overcast.13 mph72%30.03 "Hg8 mi
5:00 AM10 °FLight snow. Overcast.13 mph72%30.04 "Hg7 mi
4:00 AM10 °FLight snow. Overcast.10 mph67%30.05 "Hg9 mi
3:00 AM10 °FMostly cloudy.10 mph61%30.06 "Hg15 mi
2:00 AM10 °FOvercast.9 mph56%30.08 "Hg15 mi
1:00 AM10 °FOvercast.12 mph61%30.09 "Hg15 mi
12:00 AM10 °FOvercast.10 mph61%30.09 "Hg15 mi
11:00 PM
Jan 25
10 °FPassing clouds.10 mph67%30.10 "Hg15 mi
10:00 PM10 °FPassing clouds.13 mph61%30.09 "Hg15 mi
Weather by CustomWeather, © 2014

See weather overviewHow to use our weather pages